Flag for South Africa Weather past 2 weeks in Cape Town, South Africa

Now
61 °F

Passing clouds.


Feels Like: 61 °F
Forecast: 56 / 63 °F
Wind: 7 mph from Southwest

Location: Cape Town International Airport

Current Time: Apr 27, 2015 at 8:37:50 PM

Latest Report: Apr 27, 2015 at 8:00 PM


Visibility: N/A

Pressure: 29.98 "Hg

Humidity: 83%

Dew point: 55 °F

Location of Cape TownLocation

Historic Weather in Cape Town — Graph

°F

Cape Town temperature yesterday

Maximum temperature yesterday: 73 °F (at 2:00 PM)
Minimum temperature yesterday: 55 °F (at 4:00 AM)
Average temperature yesterday: 62 °F

Past Weeks' High & Low Weather Summary

 TemperatureHumidityPressure
High82 °F (Apr 24, 2:00 PM)100% (Apr 12, 11:00 PM)30.36 "Hg (Apr 12, 11:00 PM)
Low46 °F (Apr 16, 6:00 AM)24% (Apr 19, 2:00 PM)29.98 "Hg (Apr 19, 3:00 PM)
Average62 °F71%30.13 "Hg
* Reported Apr 12 7:00 PM — Apr 27 7:00 PM, Cape Town, Weather by CustomWeather, © 2015

Note: Actual official high and low records may vary slightly from our data, if they occured in-between our weather recording intervals... More about our weather records

Advertising

Cape Town weather history for previous 24 hours

 ConditionsComfort  
Time TempWeatherWind HumidityBarometerVisibility
7:00 PM
Mon, Apr 27
61 °FClear.9 mph83%29.98 "Hg10 mi
6:00 PM63 °FClear.8 mph77%29.98 "Hg10 mi
5:00 PM66 °FSunny.10 mph68%29.98 "Hg10 mi
4:00 PM72 °FSunny.12 mph53%29.98 "Hg10 mi
3:00 PM73 °FPassing clouds.12 mph50%29.98 "HgN/A
2:00 PM73 °FPassing clouds.10 mph50%30.01 "HgN/A
1:00 PM68 °FSunny.9 mph60%30.04 "Hg10 mi
12:00 PM68 °FPassing clouds.14 mph60%30.07 "HgN/A
11:00 AM64 °FPassing clouds.8 mph73%30.09 "HgN/A
10:00 AM66 °FPassing clouds.8 mph64%30.09 "HgN/A
9:00 AM61 °FPassing clouds.8 mph83%30.07 "HgN/A
8:00 AM52 °FSunny.2 mph94%30.04 "Hg10 mi
7:00 AM52 °FClear.1 mph88%30.04 "Hg4 mi
6:00 AM59 °FClear.8 mph77%30.04 "Hg10 mi
5:00 AM55 °FClear.9 mph88%30.07 "Hg10 mi
4:00 AM59 °FPassing clouds.8 mph82%30.07 "HgN/A
3:00 AM61 °FPassing clouds.7 mph77%30.09 "HgN/A
2:00 AM59 °FPassing clouds.8 mph88%30.09 "HgN/A
1:00 AM59 °FPassing clouds.9 mph88%30.12 "HgN/A
12:00 AM61 °FPassing clouds.8 mph83%30.12 "HgN/A
11:00 PM
Sun, Apr 26
61 °FPassing clouds.10 mph83%30.12 "HgN/A
10:00 PM61 °FPassing clouds.13 mph88%30.12 "HgN/A
9:00 PM61 °FPassing clouds.10 mph88%30.12 "HgN/A
8:00 PM61 °FPassing clouds.13 mph88%30.12 "HgN/A
Weather by CustomWeather, © 2015

See weather overviewHow to use our weather pages